Weather History for West Palm Beach, FL

Change the Weather History Date:

Sunday, October 16, 2011

  Actual Average Record
Temperature  
Mean Temperature 80 °F 78 °F  
Max Temperature 83 °F 85 °F 93 °F (2009)
Min Temperature 76 °F 72 °F 54 °F (1889)
Degree Days  
Heating Degree Days 0 0  
Month to date heating degree days 0 0  
Since 1 July heating degree days 0 0  
Cooling Degree Days 15 13  
Month to date cooling degree days 252 234  
Year to date cooling degree days 4144 3442  
Growing Degree Days 31 (Base 50)    
Moisture  
Dew Point 68 °F    
Average Humidity 70    
Maximum Humidity 82    
Minimum Humidity 58    
Precipitation  
Precipitation T in 0.14 in 7.09 in (1910)
Month to date precipitation 0.15 2.90  
Year to date precipitation 35.92 51.97  
Snow  
Snow 0.00 in - - ()
Month to date snowfall 0.0  
Since 1 July snowfall 0.0  
Since 1 September snowfall 0.0  
Snow Depth 0.00 in    
Sea Level Pressure  
Sea Level Pressure 30.01 in    
Wind  
Wind Speed 15 mph (ENE)    
Max Wind Speed 23 mph    
Max Gust Speed 29 mph    
Visibility 10 miles    
Events Rain    
T = Trace of Precipitation, MM = Missing Value Source: NWS Daily Summary

Daily Weather History Graph

Daily Weather History Graph

Search for Another Location

Airport:

Trip Planner

Search our weather history database for the weather conditions in past years. The results will help you decide how hot, cold, wet, or windy it might be!

Date:

Astronomy

Oct. 16, 2011 Rise Set
Actual Time 7:20 AM EDT 6:51 PM EDT
Civil Twilight 6:56 AM EDT 7:14 PM EDT
Nautical Twilight 6:29 AM EDT 7:41 PM EDT
Astronomical Twilight 6:02 AM EDT 8:08 PM EDT
Moon 9:59 PM EDT (10/16) 11:12 AM EDT (10/16)
Length of Visible Light 12h 17m
Length of Day
11h 31m
Waning Gibbous, 82% of the Moon is Illuminated
Oct 16
Waning Gibbous
Oct 19
Last Quarter
Oct 26
New
Nov 2
First Quarter
Nov 10
Full

Hourly Weather History & Observations

Time (EDT) Temp. Heat Index Dew Point Humidity Pressure Visibility Wind Dir Wind Speed Gust Speed Precip Events Conditions
12:53 AM 80.1 °F 82.3 °F 66.9 °F 64% 30.04 in 10.0 mi ENE 10.4 mph - N/A   Overcast
1:53 AM 80.1 °F 82.3 °F 66.9 °F 64% 30.03 in 10.0 mi ENE 13.8 mph 20.7 mph N/A   Overcast
2:53 AM 80.1 °F 82.7 °F 68.0 °F 67% 30.00 in 10.0 mi East 11.5 mph - N/A   Overcast
3:53 AM 80.1 °F 82.7 °F 68.0 °F 67% 29.99 in 10.0 mi ENE 12.7 mph - N/A   Overcast
4:53 AM 80.1 °F 82.7 °F 68.0 °F 67% 29.98 in 10.0 mi ENE 10.4 mph - N/A   Mostly Cloudy
5:53 AM 80.1 °F 82.7 °F 68.0 °F 67% 29.99 in 10.0 mi ENE 8.1 mph - N/A   Overcast
6:53 AM 80.1 °F 82.9 °F 69.1 °F 69% 29.99 in 10.0 mi ENE 12.7 mph - N/A   Overcast
7:18 AM 80.6 °F 83.9 °F 69.8 °F 70% 30.00 in 10.0 mi ENE 13.8 mph 21.9 mph N/A   Overcast
7:53 AM 80.1 °F 82.9 °F 69.1 °F 69% 30.01 in 10.0 mi ENE 13.8 mph - N/A   Overcast
8:53 AM 80.1 °F 82.9 °F 69.1 °F 69% 30.03 in 10.0 mi ENE 12.7 mph 21.9 mph N/A   Overcast
9:53 AM 81.0 °F 84.1 °F 69.1 °F 67% 30.04 in 10.0 mi ENE 15.0 mph 21.9 mph N/A   Overcast
10:53 AM 82.0 °F 84.9 °F 68.0 °F 62% 30.05 in 10.0 mi ENE 15.0 mph - N/A   Overcast
11:34 AM 82.4 °F 84.6 °F 66.2 °F 58% 30.05 in 10.0 mi ENE 16.1 mph 24.2 mph N/A   Overcast
11:53 AM 82.0 °F 84.5 °F 66.9 °F 60% 30.04 in 10.0 mi ENE 13.8 mph 23.0 mph N/A   Overcast
12:53 PM 82.0 °F 84.5 °F 66.9 °F 60% 30.03 in 10.0 mi NE 13.8 mph - N/A   Overcast
1:53 PM 82.9 °F 85.4 °F 66.9 °F 58% 30.01 in 10.0 mi NE 17.3 mph 23.0 mph N/A   Overcast
2:53 PM 82.9 °F 85.0 °F 66.0 °F 56% 29.99 in 10.0 mi ENE 19.6 mph 26.5 mph N/A   Overcast
3:53 PM 81.0 °F 83.0 °F 66.0 °F 60% 29.98 in 10.0 mi NE 17.3 mph 27.6 mph 0.00 in Rain Light Rain
4:53 PM 80.1 °F 82.7 °F 68.0 °F 67% 29.98 in 10.0 mi East 17.3 mph 26.5 mph 0.00 in Rain Light Rain
5:53 PM 80.1 °F 82.7 °F 68.0 °F 67% 29.97 in 10.0 mi East 16.1 mph 24.2 mph 0.00 in Rain Light Rain
6:53 PM 80.1 °F 82.7 °F 68.0 °F 67% 29.97 in 10.0 mi East 15.0 mph 25.3 mph 0.00 in   Overcast
7:53 PM 80.1 °F 82.7 °F 68.0 °F 67% 29.97 in 10.0 mi East 18.4 mph - N/A   Overcast
8:53 PM 80.1 °F 82.9 °F 69.1 °F 69% 29.99 in 10.0 mi East 17.3 mph 24.2 mph N/A   Overcast
9:53 PM 80.1 °F 83.2 °F 70.0 °F 71% 30.00 in 10.0 mi East 15.0 mph - N/A   Overcast
10:53 PM 80.1 °F 82.9 °F 69.1 °F 69% 30.01 in 10.0 mi East 16.1 mph - N/A   Overcast
11:53 PM 77.0 °F - 71.1 °F 82% 30.00 in 10.0 mi SE 21.9 mph 26.5 mph 0.00 in Rain Light Rain